This is the latest recevied weather packets stored in our database for station/object K5NOC-12. If no packets are shown the sender has not sent any weather packets the latest 10 day(s).
| Time | Temp. | Humidity | Pressure | Rain* | Wind** | Luminosity | Snow |
|---|---|---|---|---|---|---|---|
| 1787907824 | 21.11° C | 63% | 1022.7 hPa | 0 mm | - | - | - |
| 1787906924 | 21.67° C | 62% | 1022.7 hPa | 0 mm | - | - | - |
| 1787906023 | 21.67° C | 61% | 1022.8 hPa | 0 mm | - | - | - |
| 1787905123 | 22.22° C | 60% | 1022.8 hPa | 0 mm | - | - | - |
| 1787904223 | 22.22° C | 61% | 1022.8 hPa | 0 mm | - | - | - |
| 1787903323 | 22.22° C | 62% | 1023.1 hPa | 0 mm | - | - | - |
| 1787902423 | 22.22° C | 62% | 1023.2 hPa | 0 mm | - | - | - |
| 1787901522 | 22.22° C | 61% | 1023.3 hPa | 0 mm | - | - | - |
| 1787900622 | 22.78° C | 61% | 1023.2 hPa | 0 mm | - | - | - |
| 1787899722 | 22.78° C | 60% | 1023 hPa | 0 mm | - | - | - |
| 1787898822 | 22.78° C | 59% | 1023 hPa | 0 mm | - | - | - |
| 1787897922 | 23.33° C | 58% | 1022.9 hPa | 0 mm | - | - | - |
| 1787897022 | 22.78° C | 58% | 1022.9 hPa | 0 mm | - | - | - |
| 1787896122 | 23.33° C | 58% | 1022.7 hPa | 0 mm | - | - | - |
| 1787895221 | 23.33° C | 56% | 1022.7 hPa | 0 mm | - | - | - |
| 1787894321 | 23.89° C | 55% | 1022.7 hPa | 0 mm | - | - | - |
| 1787893421 | 23.89° C | 54% | 1022.7 hPa | 0 mm | - | - | - |
| 1787892521 | 23.89° C | 54% | 1022.8 hPa | 0 mm | - | - | - |
| 1787891621 | 24.44° C | 53% | 1022.7 hPa | 0 mm | - | - | - |
| 1787890721 | 24.44° C | 51% | 1022.7 hPa | 0 mm | - | - | - |
| 1787889821 | 25° C | 51% | 1022.8 hPa | 0 mm | - | - | - |
| 1787888921 | 25° C | 50% | 1022.7 hPa | 0 mm | - | - | - |
| 1787888020 | 25.56° C | 49% | 1022.6 hPa | 0 mm | - | - | - |
| 1787887120 | 25.56° C | 49% | 1022.6 hPa | 0 mm | - | - | - |
| 1787886220 | 25.56° C | 49% | 1022.5 hPa | 0 mm | - | - | - |
* Rain latest hour (hover to see other rain measurements)
** Current wind speed in m/s (hover to see current wind gust speed)